Date String (YYYY-MM-DD hh:mm:ss) UTC,Instrument flags,absolute air pressure of the measurement (hPa),sample flow rate (lpm),inlet stack bypass flow (lpm),air temperature of the measurement (°C),ambient temperature measured by the external sensor (°C),aerosol sample conditioner tube jacket temperature (°C),OPC LED temperature (°C),internal box temperature (°C),relative humidity of the measurement (%),span deviation,mass concentration of particles derived from Lorenz-Mie calculation of OPC scattering (μg/m³),mass concentration of particles derived from Lorenz-Mie calculation of OPC scattering (μg/m³),mass concentration of particles derived from Lorenz-Mie calculation of OPC scattering (μg/m³)
DateTimeUTC,F1_M11,P_M11,Q1_M11,Q2_M11,T1_M11,T2_M11,T3_M11,T4_M11,T5_M11,U1_M11,ZSPAN_M11,X2_M11,X0_M11,X1_M11
2024-05-26 13:00:00,SystemResetWarning,0824.7,4.99,000.00,026.8,025.9,000.0,035.1,028.5,015.4,0000.0,0000.73,0001.19,0000.53
2024-05-26 13:01:00,SystemResetWarning,0824.7,5.00,000.00,026.8,025.9,000.0,035.1,028.5,015.2,0000.0,0000.72,0001.14,0000.53
2024-05-26 13:02:00,SystemResetWarning,0824.7,5.00,000.00,026.8,025.9,000.0,035.1,028.5,015.0,0000.0,0000.72,0001.11,0000.54
2024-05-26 13:03:00,SystemResetWarning,0824.7,5.01,000.00,026.8,025.8,000.0,035.1,028.5,015.5,0000.0,0000.73,0001.11,0000.55
2024-05-26 13:04:00,SystemResetWarning,0824.7,5.00,000.00,026.7,025.8,000.0,035.1,028.4,015.6,0000.0,0000.73,0001.09,0000.56
2024-05-26 13:05:00,SystemResetWarning,0824.7,5.00,000.00,026.7,025.8,000.0,035.1,028.4,015.7,0000.0,0000.72,0001.05,0000.56
2024-05-26 13:06:00,SystemResetWarning,0824.8,5.01,000.00,026.7,025.8,000.0,035.0,028.4,015.5,0000.0,0000.73,0001.11,0000.57
2024-05-26 13:07:00,SystemResetWarning,0824.8,5.00,000.00,026.7,025.8,000.0,035.0,028.4,015.7,0000.0,0000.74,0001.14,0000.57
2024-05-26 13:08:00,SystemResetWarning,0824.8,4.99,000.00,026.7,025.8,000.0,035.0,028.4,015.9,0000.0,0000.74,0001.15,0000.58
2024-05-26 13:09:00,SystemResetWarning,0824.9,4.99,000.00,026.7,025.8,000.0,035.0,028.4,015.6,0000.0,0000.75,0001.16,0000.58
2024-05-26 13:10:00,SystemResetWarning,0824.9,5.01,000.00,026.7,025.8,000.0,035.0,028.4,014.8,0000.0,0000.78,0001.22,0000.59
2024-05-26 13:11:00,SystemResetWarning,0824.8,5.01,000.00,026.7,025.8,000.0,035.0,028.4,015.0,0000.0,0000.78,0001.19,0000.60
2024-05-26 13:12:00,SystemResetWarning,0824.9,4.99,000.00,026.7,025.8,000.0,035.0,028.4,015.1,0000.0,0000.79,0001.49,0000.61
2024-05-26 13:13:00,SystemResetWarning,0824.9,4.99,000.00,026.7,025.8,000.0,035.0,028.4,015.9,0000.0,0000.79,0001.62,0000.61
2024-05-26 13:14:00,SystemResetWarning,0824.9,5.01,000.00,026.7,025.8,000.0,035.0,028.4,015.8,0000.0,0000.81,0001.63,0000.62
2024-05-26 13:15:00,SystemResetWarning,0824.9,5.01,000.00,026.7,025.8,000.0,035.0,028.4,015.8,0000.0,0000.84,0001.73,0000.63
2024-05-26 13:16:00,SystemResetWarning,0824.9,5.00,000.00,026.7,025.8,000.0,035.0,028.4,015.0,0000.0,0000.86,0001.77,0000.64
2024-05-26 13:17:00,SystemResetWarning,0824.9,5.00,000.00,026.7,025.8,000.0,035.0,028.4,014.9,0000.0,0000.89,0001.81,0000.66
2024-05-26 13:18:00,SystemResetWarning,0824.9,5.00,000.00,026.6,025.8,000.0,035.0,028.4,015.0,0000.0,0000.90,0001.81,0000.68
2024-05-26 13:19:00,SystemResetWarning,0825.0,5.00,000.00,026.6,025.7,000.0,035.0,028.4,015.0,0000.0,0000.92,0001.83,0000.69
2024-05-26 13:20:00,SystemResetWarning,0824.9,5.00,000.00,026.6,025.7,000.0,035.0,028.3,015.0,0000.0,0000.92,0001.83,0000.70
2024-05-26 13:21:00,SystemResetWarning,0824.9,5.00,000.00,026.6,025.7,000.0,035.0,028.3,014.8,0000.0,0000.91,0001.75,0000.71
2024-05-26 13:22:00,SystemResetWarning,0825.0,5.00,000.00,026.6,025.7,000.0,034.9,028.4,014.8,0000.0,0000.94,0001.78,0000.72
2024-05-26 13:23:00,SystemResetWarning,0825.1,4.99,000.00,026.6,025.7,000.0,034.9,028.3,014.9,0000.0,0000.96,0001.55,0000.74
2024-05-26 13:24:00,SystemResetWarning,0825.1,5.00,000.00,026.6,025.7,000.0,034.9,028.3,015.0,0000.0,0000.99,0001.47,0000.76
2024-05-26 13:25:00,SystemResetWarning,0825.1,5.01,000.00,026.6,025.7,000.0,034.9,028.3,015.1,0000.0,0001.04,0001.66,0000.76
2024-05-26 13:26:00,SystemResetWarning,0825.1,5.00,000.00,026.6,025.7,000.0,034.9,028.3,015.2,0000.0,0001.09,0001.74,0000.78
2024-05-26 13:27:00,SystemResetWarning,0825.1,5.00,000.00,026.6,025.6,000.0,034.9,028.3,014.8,0000.0,0001.13,0001.80,0000.79
2024-05-26 13:28:00,SystemResetWarning,0825.1,5.01,000.00,026.6,025.6,000.0,034.9,028.3,014.7,0000.0,0001.13,0001.82,0000.79
2024-05-26 13:29:00,SystemResetWarning,0825.1,5.00,000.00,026.6,025.6,000.0,034.9,028.3,014.8,0000.0,0001.12,0001.81,0000.79
2024-05-26 13:30:00,SystemResetWarning,0825.1,5.00,000.00,026.5,025.6,000.0,034.9,028.3,014.8,0000.0,0001.13,0001.84,0000.80
2024-05-26 13:31:00,SystemResetWarning,0825.1,4.99,000.00,026.5,025.6,000.0,034.9,028.3,014.7,0000.0,0001.14,0001.88,0000.81
2024-05-26 13:32:00,SystemResetWarning,0825.1,4.99,000.00,026.5,025.6,000.0,034.9,028.3,014.8,0000.0,0001.17,0002.04,0000.82
2024-05-26 13:33:00,SystemResetWarning,0825.2,5.00,000.00,026.5,025.6,000.0,034.9,028.3,014.5,0000.0,0001.15,0002.33,0000.82
2024-05-26 13:34:00,SystemResetWarning,0825.2,5.00,000.00,026.5,025.6,000.0,034.9,028.2,014.8,0000.0,0001.13,0002.37,0000.81
2024-05-26 13:35:00,SystemResetWarning,0825.1,5.00,000.00,026.5,025.6,000.0,034.9,028.2,014.9,0000.0,0001.15,0002.43,0000.82
2024-05-26 13:36:00,SystemResetWarning,0825.2,5.01,000.00,026.5,025.6,000.0,034.8,028.3,014.3,0000.0,0001.13,0002.29,0000.83
2024-05-26 13:37:00,SystemResetWarning,0825.2,5.00,000.00,026.5,025.6,000.0,034.8,028.2,014.3,0000.0,0001.08,0002.18,0000.84
2024-05-26 13:38:00,SystemResetWarning,0825.2,5.00,000.00,026.5,025.6,000.0,034.8,028.2,014.5,0000.0,0001.07,0002.17,0000.85
2024-05-26 13:39:00,SystemResetWarning,0825.2,5.00,000.00,026.5,025.5,000.0,034.8,028.3,014.0,0000.0,0001.10,0002.57,0000.86
2024-05-26 13:40:00,SystemResetWarning,0825.3,4.99,000.00,026.5,025.6,000.0,034.8,028.3,014.2,0000.0,0001.14,0002.69,0000.88
2024-05-26 13:41:00,SystemResetWarning,0825.2,5.00,000.00,026.5,025.6,000.0,034.8,028.2,014.0,0000.0,0001.15,0002.68,0000.88
2024-05-26 13:42:00,SystemResetWarning,0825.2,5.00,000.00,026.5,025.6,000.0,034.8,028.2,014.1,0000.0,0001.16,0002.68,0000.88
2024-05-26 13:43:00,SystemResetWarning,0825.1,5.01,000.00,026.5,025.6,000.0,034.8,028.3,014.1,0000.0,0001.15,0002.56,0000.88
2024-05-26 13:44:00,SystemResetWarning,0825.1,5.01,000.00,026.5,025.5,000.0,034.8,028.2,013.9,0000.0,0001.18,0002.37,0000.89
2024-05-26 13:45:00,SystemResetWarning,0825.2,4.99,000.00,026.5,025.5,000.0,034.8,028.2,013.9,0000.0,0001.20,0002.26,0000.90
2024-05-26 13:46:00,SystemResetWarning,0825.2,4.99,000.00,026.5,025.5,000.0,034.8,028.2,014.1,0000.0,0001.20,0002.26,0000.91
2024-05-26 13:47:00,SystemResetWarning,0825.1,4.99,000.00,026.5,025.5,000.0,034.8,028.2,013.8,0000.0,0001.22,0002.27,0000.93
2024-05-26 13:48:00,SystemResetWarning,0825.1,5.00,000.00,026.5,025.5,000.0,034.8,028.2,013.9,0000.0,0001.26,0002.33,0000.94
2024-05-26 13:49:00,SystemResetWarning,0825.1,5.00,000.00,026.5,025.5,000.0,034.8,028.2,013.9,0000.0,0001.28,0002.47,0000.94
2024-05-26 13:50:00,SystemResetWarning,0825.1,5.01,000.00,026.4,025.5,000.0,034.8,028.2,014.0,0000.0,0001.31,0002.30,0000.95
2024-05-26 13:51:00,SystemResetWarning,0825.1,5.00,000.00,026.4,025.5,000.0,034.8,028.2,014.1,0000.0,0001.34,0003.06,0000.96
2024-05-26 13:52:00,SystemResetWarning,0825.0,4.99,000.00,026.4,025.5,000.0,034.7,028.1,013.9,0000.0,0001.34,0003.10,0000.97
2024-05-26 13:53:00,SystemResetWarning,0825.1,5.00,000.00,026.4,025.5,000.0,034.7,028.2,014.1,0000.0,0001.36,0003.19,0000.99
2024-05-26 13:54:00,SystemResetWarning,0825.1,5.00,000.00,026.4,025.5,000.0,034.7,028.2,014.4,0000.0,0001.35,0003.32,0001.00
2024-05-26 13:55:00,SystemResetWarning,0825.1,5.00,000.00,026.4,025.4,000.0,034.7,028.2,014.6,0000.0,0001.34,0003.32,0001.01
2024-05-26 13:56:00,SystemResetWarning,0825.1,5.00,000.00,026.4,025.4,000.0,034.7,028.1,014.1,0000.0,0001.36,0003.40,0001.02
2024-05-26 13:57:00,SystemResetWarning,0825.2,5.00,000.00,026.4,025.4,000.0,034.7,028.1,014.5,0000.0,0001.39,0003.52,0001.02
2024-05-26 13:58:00,SystemResetWarning,0825.1,5.00,000.00,026.4,025.4,000.0,034.7,028.1,014.4,0000.0,0001.40,0003.54,0001.02
2024-05-26 13:59:00,SystemResetWarning,0825.2,5.00,000.00,026.4,025.4,000.0,034.7,028.1,014.3,0000.0,0001.39,0003.55,0001.02
